[[{"header":{"parameterUnit":"m.s-1","parameterCategory":1,"la1":30.2991,"la2":30.254,"lo1":-89.0895,"lo2":-89.0444,"dy":0.0017,"dx":0.0017,"nx":28,"ny":28,"refTime":"2024-11-25T03:00:00:Z","depth":0,"parameterNumber":2,"parameterNumberName":"U-component_of_WINDS"},"data":[0,0,0,0,0,0,0,0,0,0,0,0,0,0,0,0,0,0,0,0,0,0,0,0,0,0,0,0,0,0,0,0,0,0,0,0,0,0,0,0,0,0,0,0,0,0,0,0,0,0,0,0,0,0,0,0,0,0,-0.7261,-0.7261,0,-0.7288,-0.7288,-0.7289,-0.7282,-0.7282,-0.7281,-0.7281,-0.7309,-0.731,-0.7311,0,0,0,0,0,0,0,0,0,0,0,0,0,-0.7204,-0.7205,-0.7261,-0.7261,-0.7262,-0.7288,-0.7288,-0.7289,-0.7282,-0.7282,-0.7281,-0.728,-0.7308,-0.731,-0.7311,0,0,0,0,0,0,0,0,0,0,0,0,0,-0.723,-0.7206,-0.7261,-0.7262,-0.7262,-0.7288,-0.7288,-0.7289,-0.7282,-0.7282,-0.7281,-0.728,-0.7308,-0.731,-0.7312,-0.7339,0,0,-0.7317,-0.7318,0,0,0,0,0,0,0,0,-0.7228,-0.7232,-0.7261,-0.7262,-0.7262,-0.7281,-0.7279,-0.7306,-0.7283,-0.7275,-0.7281,-0.728,-0.73,-0.7303,-0.7309,-0.734,-0.7341,-0.7317,-0.7319,-0.7319,-0.732,0,0,0,0,0,0,0,-0.7227,-0.7231,-0.7272,-0.7262,-0.7262,-0.7261,-0.7263,-0.7284,-0.7292,-0.7275,-0.7275,-0.7278,-0.73,-0.7308,-0.731,-0.7342,-0.7317,-0.7319,-0.732,-0.7321,-0.7395,-0.7395,0,0,0,0,0,0,-0.7224,-0.7229,-0.7271,-0.7273,-0.7243,-0.7262,-0.7265,-0.7276,-0.7291,-0.7293,-0.7279,-0.7278,-0.7305,-0.7308,-0.7311,-0.7343,-0.7319,-0.7321,-0.7322,-0.7394,-0.7395,-0.7396,0,0,0,0,0,0,-0.7223,-0.7228,-0.727,-0.7251,-0.7256,-0.7264,-0.7276,-0.7277,-0.7284,-0.7294,-0.7295,-0.7285,-0.7304,-0.7308,-0.7332,-0.7344,-0.7322,-0.7324,-0.7393,-0.7394,-0.7395,-0.7408,0,0,0,0,0,0,-0.7222,-0.7228,-0.7238,-0.7251,-0.7257,-0.729,-0.7277,-0.7278,-0.7287,-0.7286,-0.73,-0.7302,-0.7304,-0.7329,-0.7333,-0.7346,-0.7325,-0.7392,-0.7393,-0.7395,-0.7406,-0.7409,-0.7412,0,0,0,0,0,-0.722,-0.7241,-0.7239,-0.7244,-0.727,-0.7291,-0.7294,-0.7296,-0.7288,-0.7299,-0.7305,-0.7301,-0.7342,-0.7331,-0.7336,-0.735,-0.7391,-0.7393,-0.7395,-0.7405,-0.7409,-0.7412,0,0,0,0,0,0,-0.723,-0.7243,-0.724,-0.7267,-0.7277,-0.729,-0.7303,-0.73,-0.7314,-0.7313,-0.7315,-0.7318,-0.7342,-0.7348,-0.7336,-0.7376,-0.7365,-0.7368,-0.7371,-0.7375,-0.7378,-0.7375,-0.7327,0,0,0,0,0,-0.7235,-0.725,-0.7261,-0.7283,-0.7289,-0.7295,-0.7304,-0.7305,-0.7316,-0.7321,-0.7329,-0.734,-0.7355,-0.7366,-0.738,-0.7407,-0.741,-0.7419,-0.7422,-0.7424,-0.7426,-0.744,-0.7444,-0.7402,-0.7402,-0.7402,0,0,-0.7246,-0.7255,-0.7265,-0.7285,-0.7294,-0.731,-0.7299,-0.7316,-0.7328,-0.7324,-0.7346,-0.7352,-0.7365,-0.7389,-0.7401,-0.7396,-0.7439,-0.7426,-0.7428,-0.7429,-0.7443,-0.7447,-0.745,-0.7403,-0.7403,-0.7403,0,0,-0.7274,-0.7283,-0.7302,-0.731,-0.7323,-0.7327,-0.7331,-0.7344,-0.7348,-0.737,-0.7367,-0.7381,-0.7407,-0.7416,-0.7424,-0.7455,-0.7452,-0.746,-0.7474,-0.7488,-0.7491,-0.7494,-0.7504,-0.7508,-0.7462,-0.7462,-0.7462,0,-0.7286,-0.731,-0.7312,-0.7329,-0.7338,-0.7334,-0.7353,-0.7362,-0.7379,-0.7385,-0.7379,-0.7411,-0.742,-0.7446,-0.7454,-0.7461,-0.7466,-0.7458,-0.749,-0.7493,-0.7496,-0.7506,-0.751,-0.7463,-0.7463,-0.7463,-0.7463,0,-0.7324,-0.734,-0.7354,-0.737,-0.7381,-0.7399,-0.7403,-0.7414,-0.7413,-0.7418,-0.744,-0.745,-0.7466,-0.7472,-0.7473,-0.7499,-0.7495,-0.749,-0.7478,-0.7501,-0.751,-0.7514,-0.7464,-0.7464,-0.7464,-0.7463,0,0,-0.7359,-0.7376,-0.7381,-0.7388,-0.7401,-0.7414,-0.7432,-0.7447,-0.7456,-0.7468,-0.7482,-0.7505,-0.7499,-0.7508,-0.751,-0.7521,-0.7544,-0.7514,-0.7515,-0.7519,-0.7573,-0.7577,-0.7581,-0.7542,-0.7543,-0.7544,-0.7572,0,-0.7388,-0.7419,-0.7421,-0.7449,-0.7464,-0.746,-0.7476,-0.7486,-0.749,-0.7503,-0.7509,-0.7524,-0.7516,-0.7522,-0.7533,-0.7539,-0.7555,-0.7537,-0.7556,-0.7556,-0.7552,-0.7586,-0.759,-0.7616,-0.7575,-0.7576,-0.7576,0,-0.7426,-0.7438,-0.7468,-0.7479,-0.7485,-0.7499,-0.7513,-0.7526,-0.7537,-0.7539,-0.7549,-0.7548,-0.7566,-0.7554,-0.7579,-0.7566,-0.7574,-0.7578,-0.7579,-0.7581,-0.7567,-0.7588,-0.7624,-0.7628,-0.7582,-0.7582,-0.7581,0,-0.7448,-0.7472,-0.7493,-0.7499,-0.7512,-0.7522,-0.7528,-0.7538,-0.7547,-0.7559,-0.7565,-0.758,-0.7587,-0.7598,-0.7601,-0.7593,-0.7625,-0.7614,-0.7628,-0.7628,-0.7635,-0.7634,-0.7672,-0.764,-0.764,-0.764,-0.764,0,-0.748,-0.7498,-0.7503,-0.7515,-0.7535,-0.7537,-0.7557,-0.7562,-0.7571,-0.7585,-0.7583,-0.7595,-0.7599,-0.7612,-0.7614,-0.7634,-0.7638,-0.764,-0.764,-0.764,-0.7639,-0.7644,-0.7642,-0.7641,-0.7641,-0.7641,-0.7641,0,-0.7508,-0.7512,-0.7534,-0.7544,-0.7547,-0.7562,-0.7571,-0.7583,-0.7587,-0.7603,-0.7608,-0.7614,-0.7629,-0.7633,-0.7652,-0.7654,-0.7676,-0.7675,-0.7672,-0.7672,-0.7685,-0.7684,-0.7728,-0.7733,-0.7698,-0.7699,-0.7699,0,-0.7528,-0.7541,-0.7553,-0.7562,-0.7568,-0.7582,-0.7591,-0.7593,-0.7603,-0.7616,-0.7626,-0.7641,-0.7653,-0.7678,-0.7684,-0.7698,-0.7697,-0.7712,-0.7699,-0.7698,-0.7696,-0.7695,-0.7696,-0.7714,-0.7714,-0.7714,-0.7715,0,-0.7562,-0.7563,-0.7576,-0.7589,-0.76,-0.7611,-0.7621,-0.7628,-0.7632,-0.7642,-0.7658,-0.7667,-0.7686,-0.77,-0.7714,-0.7721,-0.7718,-0.7719,-0.7722,-0.7722,-0.7719,-0.772,-0.7678,-0.7717,-0.7717,-0.7717,-0.7717,-0.7717,-0.7586,-0.7598,-0.7608,-0.7622,-0.7629,-0.7639,-0.765,-0.7656,-0.7668,-0.7683,-0.7684,-0.7701,-0.7711,-0.7729,-0.7736,-0.7749,-0.7745,-0.775,-0.7752,-0.7753,-0.7753,-0.7717,-0.7752,-0.7752,-0.7752,-0.7751,-0.7751,0,-0.762,-0.7626,-0.7639,-0.7653,-0.7664,-0.766,-0.7671,-0.7681,-0.7695,-0.7705,-0.7717,-0.7734,-0.7748,-0.7755,-0.7769,-0.7778,-0.7777,-0.7782,-0.7781,-0.7782,-0.7757,-0.7752,-0.7782,-0.7782,-0.7782,-0.7782,-0.7782,-0.7782,-0.7639,-0.7658,-0.766,-0.7683,-0.7689,-0.7705,-0.7711,-0.772,-0.7727,-0.7747,-0.7758,-0.7763,-0.7771,-0.7785,-0.7798,-0.78,-0.7805,-0.781,-0.7811,-0.7787,-0.7784,-0.7781,-0.7776,-0.7811,-0.7811,-0.7835,-0.7835,-0.7835]},{"header":{"parameterUnit":"m.s-1","parameterCategory":1,"la1":30.2991,"la2":30.254,"lo1":-89.0895,"lo2":-89.0444,"dy":0.0017,"dx":0.0017,"nx":28,"ny":28,"refTime":"2024-11-25T03:00:00:Z","depth":0,"parameterNumber":3,"parameterNumberName":"V-component_of_WINDS"},"data":[0,0,0,0,0,0,0,0,0,0,0,0,0,0,0,0,0,0,0,0,0,0,0,0,0,0,0,0,0,0,0,0,0,0,0,0,0,0,0,0,0,0,0,0,0,0,0,0,0,0,0,0,0,0,0,0,0,0,-2.6505,-2.6506,0,-2.6554,-2.6554,-2.6555,-2.6549,-2.6548,-2.6547,-2.6547,-2.6593,-2.6595,-2.6597,0,0,0,0,0,0,0,0,0,0,0,0,0,-2.6404,-2.6405,-2.6505,-2.6506,-2.6506,-2.6554,-2.6554,-2.6555,-2.6549,-2.6548,-2.6547,-2.6546,-2.6592,-2.6595,-2.6597,0,0,0,0,0,0,0,0,0,0,0,0,0,-2.6449,-2.6406,-2.6505,-2.6509,-2.651,-2.6553,-2.6554,-2.6555,-2.6549,-2.6548,-2.6547,-2.6546,-2.6591,-2.6594,-2.6597,-2.6638,0,0,-2.6606,-2.6607,0,0,0,0,0,0,0,0,-2.6447,-2.6453,-2.6508,-2.6509,-2.651,-2.6544,-2.6535,-2.6583,-2.655,-2.6534,-2.6547,-2.6545,-2.6577,-2.6581,-2.6593,-2.6641,-2.6643,-2.6606,-2.6608,-2.6609,-2.661,0,0,0,0,0,0,0,-2.6444,-2.6451,-2.6524,-2.6509,-2.651,-2.6507,-2.6513,-2.6544,-2.6562,-2.6536,-2.6535,-2.6541,-2.6578,-2.659,-2.6594,-2.6643,-2.6606,-2.6609,-2.6611,-2.6612,-2.6726,-2.6727,0,0,0,0,0,0,-2.644,-2.6448,-2.6523,-2.6526,-2.6475,-2.651,-2.6516,-2.6534,-2.6561,-2.6564,-2.6542,-2.6541,-2.6586,-2.6591,-2.6596,-2.6645,-2.6609,-2.6612,-2.6614,-2.6725,-2.6726,-2.6728,0,0,0,0,0,0,-2.6438,-2.6447,-2.6521,-2.6487,-2.6496,-2.6513,-2.6534,-2.6536,-2.6548,-2.6566,-2.6569,-2.6552,-2.6585,-2.6591,-2.6628,-2.6646,-2.6613,-2.6616,-2.6723,-2.6725,-2.6727,-2.6744,0,0,0,0,0,0,-2.6435,-2.6446,-2.6463,-2.6487,-2.6498,-2.6553,-2.6535,-2.6538,-2.6554,-2.6552,-2.6576,-2.6579,-2.6585,-2.6624,-2.6631,-2.665,-2.6618,-2.6722,-2.6724,-2.6727,-2.6742,-2.6747,-2.6751,0,0,0,0,0,-2.6431,-2.6465,-2.6463,-2.6472,-2.652,-2.6554,-2.656,-2.6567,-2.6555,-2.6572,-2.6583,-2.6578,-2.6644,-2.6627,-2.6635,-2.6656,-2.6721,-2.6724,-2.6726,-2.674,-2.6746,-2.6751,0,0,0,0,0,0,-2.644,-2.6468,-2.6467,-2.651,-2.653,-2.6553,-2.6574,-2.6573,-2.6596,-2.6593,-2.66,-2.6605,-2.6642,-2.6652,-2.6634,-2.6697,-2.668,-2.6685,-2.6688,-2.6694,-2.6698,-2.6694,-2.6621,0,0,0,0,0,-2.6448,-2.6475,-2.6497,-2.6533,-2.6543,-2.6557,-2.6573,-2.6576,-2.6597,-2.6605,-2.6619,-2.6638,-2.6663,-2.6679,-2.6703,-2.6744,-2.6748,-2.6762,-2.6766,-2.6769,-2.6773,-2.6795,-2.6801,-2.6737,-2.6737,-2.6737,0,0,-2.6463,-2.6481,-2.6498,-2.6535,-2.6551,-2.6578,-2.6564,-2.6593,-2.6613,-2.6609,-2.6644,-2.6655,-2.6677,-2.6716,-2.6734,-2.6726,-2.6792,-2.6773,-2.6776,-2.6777,-2.6798,-2.6804,-2.681,-2.6739,-2.6739,-2.6739,0,0,-2.6503,-2.6521,-2.6552,-2.6569,-2.6593,-2.6602,-2.661,-2.6634,-2.6641,-2.6677,-2.6674,-2.6697,-2.674,-2.6755,-2.6769,-2.6815,-2.6811,-2.6823,-2.6844,-2.6865,-2.687,-2.6874,-2.689,-2.6896,-2.6826,-2.6826,-2.6826,0,-2.6518,-2.656,-2.6568,-2.6598,-2.6614,-2.6612,-2.6643,-2.6659,-2.6689,-2.67,-2.6691,-2.6745,-2.6759,-2.6801,-2.6813,-2.6824,-2.6832,-2.682,-2.6869,-2.6873,-2.6878,-2.6893,-2.6899,-2.6828,-2.6827,-2.6827,-2.6827,0,-2.6577,-2.6605,-2.6627,-2.6659,-2.6677,-2.6707,-2.6719,-2.6736,-2.6738,-2.6748,-2.6784,-2.6801,-2.6828,-2.6839,-2.684,-2.6881,-2.6875,-2.6868,-2.6851,-2.6885,-2.6899,-2.6905,-2.6829,-2.6829,-2.6828,-2.6828,0,0,-2.6624,-2.6659,-2.6667,-2.6681,-2.6708,-2.673,-2.676,-2.6787,-2.6802,-2.6823,-2.6847,-2.6883,-2.6877,-2.6892,-2.6895,-2.6914,-2.6948,-2.6904,-2.6905,-2.6911,-2.6993,-2.6998,-2.7004,-2.6946,-2.6947,-2.6948,-2.6991,0,-2.6667,-2.672,-2.6728,-2.6775,-2.6801,-2.68,-2.6826,-2.6845,-2.6854,-2.6877,-2.6887,-2.6912,-2.6902,-2.6911,-2.693,-2.694,-2.6965,-2.6938,-2.6967,-2.6968,-2.6961,-2.7012,-2.7017,-2.7057,-2.6997,-2.6997,-2.6998,0,-2.6724,-2.6747,-2.6797,-2.6821,-2.6832,-2.6855,-2.688,-2.6903,-2.6923,-2.6929,-2.6946,-2.6947,-2.6976,-2.6959,-2.6999,-2.698,-2.6993,-2.7,-2.7002,-2.7004,-2.6985,-2.7015,-2.7069,-2.7075,-2.7007,-2.7006,-2.7006,0,-2.6752,-2.6797,-2.6832,-2.6844,-2.6872,-2.6888,-2.6901,-2.6921,-2.6937,-2.6959,-2.6969,-2.6993,-2.7007,-2.7025,-2.7032,-2.702,-2.7071,-2.7055,-2.7076,-2.7076,-2.7086,-2.7085,-2.7143,-2.7096,-2.7096,-2.7095,-2.7095,0,-2.6798,-2.6828,-2.6845,-2.6867,-2.69,-2.6909,-2.6941,-2.6953,-2.697,-2.6993,-2.6994,-2.7015,-2.7024,-2.7046,-2.7052,-2.7083,-2.7089,-2.7094,-2.7094,-2.7093,-2.7092,-2.7101,-2.7098,-2.7097,-2.7097,-2.7096,-2.7096,0,-2.6835,-2.6848,-2.6886,-2.6911,-2.6917,-2.6941,-2.6961,-2.6981,-2.6991,-2.7019,-2.7027,-2.7041,-2.7067,-2.7077,-2.7108,-2.7112,-2.7148,-2.7147,-2.7142,-2.7142,-2.7161,-2.7159,-2.7225,-2.7234,-2.7182,-2.7183,-2.7183,0,-2.6864,-2.6887,-2.6914,-2.693,-2.6943,-2.6969,-2.6986,-2.6995,-2.7011,-2.7037,-2.7054,-2.708,-2.7102,-2.7143,-2.7156,-2.718,-2.7179,-2.72,-2.7182,-2.718,-2.7178,-2.7176,-2.7178,-2.7203,-2.7204,-2.7204,-2.7205,0,-2.6912,-2.6918,-2.6942,-2.6969,-2.6989,-2.701,-2.703,-2.7043,-2.7055,-2.7073,-2.7101,-2.7118,-2.715,-2.7176,-2.7201,-2.7212,-2.721,-2.7211,-2.7216,-2.7215,-2.721,-2.7212,-2.715,-2.7209,-2.7208,-2.7208,-2.7208,-2.7208,-2.6945,-2.6966,-2.6988,-2.7015,-2.7032,-2.7051,-2.7071,-2.7084,-2.7107,-2.7135,-2.7139,-2.7168,-2.7187,-2.722,-2.7233,-2.7255,-2.7248,-2.7257,-2.7259,-2.7261,-2.7262,-2.7208,-2.7259,-2.7259,-2.7259,-2.7259,-2.7259,0,-2.6993,-2.7008,-2.7033,-2.7062,-2.7083,-2.7081,-2.7103,-2.712,-2.7147,-2.7166,-2.7187,-2.7218,-2.7243,-2.7258,-2.7282,-2.7297,-2.7297,-2.7303,-2.7301,-2.7304,-2.7267,-2.7259,-2.7303,-2.7303,-2.7303,-2.7303,-2.7303,-2.7303,-2.7021,-2.7055,-2.7063,-2.7105,-2.7119,-2.7148,-2.7161,-2.7178,-2.7194,-2.7229,-2.725,-2.726,-2.7277,-2.7303,-2.7325,-2.7328,-2.7337,-2.7344,-2.7347,-2.7311,-2.7307,-2.7302,-2.7295,-2.7346,-2.7346,-2.7382,-2.7382,-2.7383]}]]